C/2007 T1 ( McNaught )

Japanese version
Home page
Updated on April 29, 2008

---------------------------------------------------------------------

* Profile

Discovery Date October 9, 2007
Magnitude 12.8 mag
Discoverer R. H. McNaught (Siding Spring survey)

* Pictures

* Orbital Elements

Epoch 2007 Dec. 6.0 TT = JDT 2454440.5
T 2007 Dec. 12.52962 TT                                 MPC
q   0.9685014            (2000.0)            P               Q
z  +0.0002585      Peri.  233.75498     -0.13224632     -0.55004723
 +/-0.0000041      Node   111.43353     -0.34619671     +0.80514443
e   0.9997496      Incl.  117.64240     -0.92879424     -0.22178930

* Finding Charts

* Magnitudes Graph

        m1 = 7.5 + 5 log d + 12.0 log r

---------------------------------------------------------------------

The orbital elements are published on M.P.E.C. 2008-E09.
The charts are made with StellaNavigator Ver.8 (AstroArts).
The magnitudes graphs are made with Comet for Windows.

---------------------------------------------------------------------

Copyright(C) Seiichi Yoshida (comet@aerith.net). All rights reserved.